COSMOS 2251 DEB, 36528

Orbit data source: Space-Track

COSMOS 2251 DEB, 36528 is space debris in LEO originally from a launch on Wed, 16 Jun 1993 UTC launched from the Plesetsk Missile And Space Complex (PKMTR). The debris from Iridium 33, an American commercial communications satellite, has been tracked extensively since its accidental collision with the defunct Russian satellite Cosmos 2251 in 2009. This event, occurring at high speed in low Earth orbit (LEO), generated thousands of pieces of space debris, significantly increasing the risk of further collisions. The Iridium 33 debris cloud has impacted space traffic management and orbital debris mitigation strategies, making it a subject of ongoing study in space situational awareness.

Loading next visibility...
Identifier
36528, 1993-036BCN
Orbit
LEO
Country
Flag of CISCIS
Related business
Manufacturer
Unknown
Mission
Spacecraft
Bus & Motor
Unknown
Mass
Unknown
Launch date (UTC)
1993-06-16 (33 years ago)
Launch vehicle
Unknown
Launch site
Plesetsk Missile And Space Complex (PKMTR)
Object type
Payload
Rocket body
Debris
Shape & HBR
Unknown shape, 0.1 m
Radar Cross Section
Small (<0.1 m²)

Expand to show TLE details & history
Last TLE update: 5 days ago

TLE from 5 days ago
0 COSMOS 2251 DEB
1 36528U 93036BCN 26032.71106181  .00001084  00000-0  40759-3 0  9994
2 36528  74.0153  52.3164 0081409  89.3451 271.7026 14.30886816651562
Epoch: 2026-02-01T17:03Z
TLE epoch observation values (Epoch: 2026-02-01T17:03:55.740Z)
Latitude
-0.00004°
Longitude
24.41736°
Altitude
790.113 km
Speed
7.459 km/s
True Right ascension
03h 29m 15s
True Declination
0° 00' 00"
Sunlit
Object was in daylight at epoch
Visualization orbit readout
Latitude
Unknown
Longitude
Unknown
Altitude
Unknown
Speed
Unknown
Apparent Right ascension
Unknown
Apparent Declination
Unknown
Sunlit
N/A
Visualization observer readout
Local Sidereal Time
23:07:04
Azimuth
Unknown
Elevation
Unknown
Doppler factor
Unknown
Orbital elements
Apogee altitude
844.725 km
Perigee altitude
728.074 km
Semi-major axis
7,164.536 km
Eccentricity
0.00814
Inclination
74.0153°
RAAN
52.3164°
Arg. of periapsis
89.3451°
True anomaly
270.76989°
Mean anomaly
271.7026°
Eccentric anomaly
271.23627°
Mean motion
3.57899 °/min
Orbital period
100.59 mins
BSTAR
0.00040759
Loading maneuver chart data...
Computing Atmospheric mass density...

Documentation

Showing up to 5 results
|